Overview Statistics Trail Chart Weather Telemetry Raw packets
 

This is the latest recevied weather packets stored in our database for station/object K1RFS. If no packets are shown the sender has not sent any weather packets the latest 10 day(s).

<< 43 44 45 46 47 48 49 >>
Time Temp. Humidity Pressure Rain* Wind** Luminosity Snow
1788395318 27.22° C 13% 998.6 hPa 0 mm - 73 W/m² -
1788395014 27.22° C 13% 998.8 hPa 0 mm - 79 W/m² -
1788394714 27.22° C 14% 998.9 hPa 0 mm - 99 W/m² -
1788394410 27.22° C 13% 998.4 hPa 0 mm - 100 W/m² -
1788394109 27.78° C 14% 998.8 hPa 0 mm - 112 W/m² -
1788393804 27.78° C 14% 998.6 hPa 0 mm - 92 W/m² -
1788393502 27.78° C 13% 998.6 hPa 0 mm - 123 W/m² -
1788393198 27.78° C 13% 998.8 hPa 0 mm - 144 W/m² -
1788392916 27.78° C 14% 998.5 hPa 0 mm - 130 W/m² -
1788392597 27.78° C 13% 998.6 hPa 0 mm - 108 W/m² -
1788392296 28.33° C 13% 998.9 hPa 0 mm - 120 W/m² -
1788391990 28.33° C 14% 998.9 hPa 0 mm - 129 W/m² -
1788391689 28.89° C 13% 998.9 hPa 0 mm - 144 W/m² -
1788391389 30° C 13% 998.9 hPa 0 mm - 189 W/m² -
1788391088 29.44° C 13% 999 hPa 0 mm - 346 W/m² -
1788390783 29.44° C 14% 998.8 hPa 0 mm - 203 W/m² -
1788390479 28.89° C 13% 999 hPa 0 mm - 321 W/m² -
1788390177 28.89° C 14% 999 hPa 0 mm - 161 W/m² -
1788389872 29.44° C 13% 999 hPa 0 mm - 233 W/m² -
1788389567 30° C 13% 998.9 hPa 0 mm - 368 W/m² -
1788389266 30° C 13% 999.1 hPa 0 mm - 444 W/m² -
1788388961 29.44° C 13% 998.9 hPa 0 mm - 471 W/m² -
1788388658 28.89° C 14% 998.8 hPa 0 mm - 373 W/m² -
1788388357 29.44° C 14% 998.9 hPa 0 mm - 221 W/m² -
1788388057 30° C 14% 998.8 hPa 0 mm - 221 W/m² -

* Rain latest hour (hover to see other rain measurements)
** Current wind speed in m/s (hover to see current wind gust speed)